Regional Weather Roundup
Issued by NWS Goodland, KS

Home | Current Version | Previous Version | Graphics & Text | Print | Product List | Glossary On
Versions: 1 2 3 4 5 6 7 8 9 10 11 12 13 14 15 16 17 18 19 20 21 22 23 24 25 26 27 28 29 30 31 32 33 34 35 36 37 38 39 40 41 42 43 44 45 46 47 48 49 50
000
ASUS43 KGLD 201608
RWRGLD

GOODLAND FORECAST AREA HOURLY WEATHER ROUNDUP
NATIONAL WEATHER SERVICE GOODLAND KS
1000 AM MDT FRI APR 20 2018

...OFFICIAL OBSERVATIONS...

CITY           SKY/WX    TMP DP  RH WIND       PRES   REMARKS
GOODLAND KS    CLOUDY    44  30  57 SE28G37   30.13R
HILL CITY KS   CLOUDY    50  32  50 SE18      30.25F
IMPERIAL NEB   CLOUDY    45  29  53 SE26G37   30.14F
MCCOOK NEB     CLOUDY    46  30  53 SE18G25   30.22F
AKRON CO       LGT RAIN  42  31  64 SE30G47   30.01F
BURLINGTON CO  CLOUDY    43  30  60 SE28G43   30.08R
LIMON CO       CLOUDY    35  31  85 SE26G38   29.99F
$$

...UNOFFICIAL OBSERVATIONS...

CITY           SKY/WX    TMP DP  RH WIND       PRES   REMARKS
COLBY KS       CLOUDY    45  32  61 SE21      30.20S
NORTON KS      CLOUDY    48  32  53 SE17      30.24
SHARON SPRINGS   N/A     46  33  60 SE25G35     N/A
KIT CARSON CO    N/A     39  31  72 MISG        N/A
YUMA CO        CLOUDY    43  28  56 SE29      30.06R
$$



USA.gov is the U.S. government's official web portal to all federal, state and local government web resources and services.